#timestamp,LO_Frequency,Hit 
1503723615.4,286046996.7,N
1503723635.2,286047001.2,N
1503723655.0,286047000.9,N
1503723655.9,286047000.9,N
1503723675.8,286046999.1,N
1503723695.6,286046999.1,N
1503723715.4,286046999.0,N
1503723735.3,286046998.6,N
1503723755.1,286046997.4,N
1503723756.0,286046997.4,N
1503723775.8,286046999.3,N
1503723795.7,286047001.1,N
1503723815.5,286046996.9,N
1503723835.3,286046998.3,N
1503723855.1,286046999.0,N
1503723875.9,286047000.0,N
1503723895.7,286047000.9,N
1503723915.5,286046997.8,N
1503723935.4,286046995.4,N
1503723955.2,286046997.7,N
1503723975.0,286046995.0,P
1503723975.9,286046995.0,N
1503723995.8,286046998.3,N
1503724015.6,286046998.4,N
1503724035.4,286047000.3,N
1503724055.3,286047000.0,N
1503724075.1,286047000.5,N
1503724095.8,286046998.9,N
1503724115.7,286046998.8,N
1503724135.5,286046996.5,N
1503724155.3,286047002.8,N
1503724175.2,286047001.3,N
1503724195.9,286047001.4,N
1503724215.7,286046999.9,N
1503724235.5,286046999.9,N
1503724255.4,286046998.2,N
1503724275.2,286046999.8,N
1503724295.0,286046998.2,N
1503724295.9,286046998.2,N
1503724315.8,286046998.6,N
1503724335.6,286047000.5,N
1503724355.4,286047000.2,N
1503724375.3,286047000.4,N
1503724395.1,286047000.8,N
1503724396.0,286047000.8,N
1503724415.8,286046998.0,N
1503724435.7,286046994.4,P
1503724455.5,286046993.8,N
1503724475.3,286046993.3,N
1503724495.2,286046997.1,N
1503724515.9,286046995.0,N
1503724535.7,286046995.5,N
1503724555.6,286046994.2,P
1503724575.4,286046997.1,P
1503724595.2,286046996.6,N
1503724615.1,286046996.8,N
1503724616.0,286046996.8,P
1503724635.8,286047002.5,P
1503724655.6,286047003.9,N
1503724675.5,286047001.9,N
1503724695.3,286047000.6,N
1503724715.1,286047000.4,N
1503724735.9,286046998.6,N
1503724755.7,286046998.9,N
1503724775.5,286046999.3,N
1503724795.4,286046996.6,N
1503724815.2,286046998.7,N
1503724835.0,286046998.7,N
1503724835.9,286046998.7,N
1503724855.8,286046997.0,N
1503724875.6,286046997.4,N
1503724895.4,286046998.4,N
1503724915.3,286046998.6,N
1503724935.1,286047003.5,N
1503724936.0,286047003.5,N
1503724955.8,286047002.3,N
1503724975.6,286046999.7,N
1503724995.5,286047002.7,N
1503725015.3,286047001.6,N
1503725035.1,286047002.2,N
1503725055.9,286047005.8,N
1503725075.7,286047004.6,N
1503725095.1,286047003.0,N
1503725096.0,286047003.0,N
1503725115.8,286047005.1,N
1503725135.6,286047001.5,N
1503725155.4,286047002.7,N
1503725175.3,286047002.4,N
1503725195.1,286047001.5,N
1503725215.8,286047003.5,N
1503725235.7,286047004.1,N
1503725255.5,286047001.8,N
1503725275.3,286047001.3,N
1503725295.2,286047003.6,N
1503725315.9,286047005.9,N
1503725335.7,286047005.4,N
1503725355.6,286047007.6,P
1503725375.4,286047002.0,N
1503725395.2,286047003.0,N
1503725415.1,286047003.3,N
1503725416.0,286047003.3,N
1503725435.8,286047003.6,N
1503725455.6,286047002.9,N
1503725475.5,286047003.8,N
1503725495.3,286047006.0,P
1503725515.1,286047001.9,N
1503725535.9,286047000.1,N
1503725555.7,286047001.6,N
1503725575.5,286047001.5,N
1503725595.4,286047000.4,N
1503725615.2,286047001.7,N
1503725635.0,286047001.5,N
1503725635.9,286047001.5,N
1503725655.8,286047000.8,N
1503725675.6,286046998.5,N
1503725695.4,286047001.0,N
1503725715.3,286047001.2,N
1503725735.1,286047000.0,N
1503725736.0,286047000.0,N
1503725755.8,286047000.5,N
1503725775.7,286047001.9,N
1503725795.5,286047002.6,N
1503725815.3,286047002.7,N
1503725835.1,286046999.2,N
1503725855.9,286047000.9,N
1503725875.7,286047003.0,N
1503725895.5,286047003.8,N
1503725915.4,286046999.7,N
1503725935.2,286046999.6,N
1503725955.0,286046999.4,N
1503725955.9,286046999.4,N
1503725975.2,286046995.2,P
1503725995.9,286046996.4,N
1503726015.7,286046998.2,N
1503726035.6,286046997.6,N
1503726055.4,286046998.4,N
1503726075.2,286047000.7,N
1503726095.1,286047002.0,N
1503726096.0,286047002.0,N
1503726115.8,286047004.3,N
1503726135.6,286047002.7,N
1503726155.4,286047003.6,N
1503726175.3,286047003.6,N
1503726195.1,286047001.8,N
1503726215.8,286047004.4,N
1503726235.7,286047002.6,N
1503726255.5,286046999.4,N
1503726275.3,286047001.7,N
1503726295.2,286047004.0,N
1503726315.9,286047004.5,N
1503726335.7,286047006.9,N
1503726355.6,286047005.9,N
1503726375.4,286047007.5,N
1503726395.2,286047004.1,N
1503726415.1,286047003.2,N
1503726416.0,286047003.2,N
1503726435.8,286047004.3,N
1503726455.6,286047002.1,N
1503726475.4,286047005.0,N
1503726495.3,286047008.4,N
1503726515.1,286047008.7,N
1503726535.8,286047008.0,N
1503726555.7,286047011.8,P
1503726575.5,286047012.0,N
1503726595.3,286047009.6,N
1503726615.2,286047009.1,N
1503726635.4,286047002.9,N
1503726655.2,286047001.6,N
1503726675.0,286047001.9,N
1503726675.9,286047001.9,N
1503726695.1,286046999.7,N
1503726696.0,286046999.7,N
1503726715.8,286047000.5,N
1503726735.6,286046999.9,N
1503726755.4,286047001.8,N
1503726775.3,286046999.8,N
1503726795.1,286047002.5,N
1503726815.8,286047004.2,N
1503726835.7,286047004.2,N
1503726855.5,286047001.5,N
1503726875.3,286047000.9,N
1503726895.2,286046999.4,N
1503726915.9,286046996.9,N
1503726935.7,286046999.4,N
1503726955.6,286046997.2,N
1503726975.4,286046997.3,N
1503726995.2,286046995.1,N
1503727015.1,286046996.3,N
1503727016.0,286046996.3,N
1503727035.8,286046995.1,N
1503727055.6,286046993.5,N
1503727075.4,286046994.2,N
1503727095.3,286046995.2,N
1503727115.1,286046994.1,N
1503727135.8,286046994.7,N
1503727155.7,286046991.9,N
1503727175.5,286046992.7,N
1503727195.3,286046992.1,N
